Location: Kielce
(50.8833°N, 20.6167°E)
Time: 05:07:51
(UTC+02:00)

X-37B - Pass Details

Date: 12 March 2021
Orbit: 380 x 394 km, 45.0° (Epoch: 07 April)

Event Time Altitude Azimuth Distance (km) Brightness Sun altitude
Rises 19:19:40 0° 220° (SW) 2,267 4.8 -16.8°
Reaches altitude 10° 19:22:16 10° 197° (SSW) 1,418 3.4 -17.1°
Enters shadow 19:23:06 13° 184° (S) 1,236 3.0 -17.3°
